KGS Home Page Kansas Earthquake Database

Kansas Quakes From JAN-2019 to DEC-2019

Click on column heading to sort.
Save To File
Geophysics Index Page

420 records returned--50 displayed at a time.
View page: 1 || 2 || 3 || 4 || 5 || 6 || 7 || 8 || 9
Quake ID UTC Date and Time
Ascend. Desc.
Local Date and Time Latitude Longitude Map Magnitude
Ascend. Desc.
County Name
1001461234 2019-06-04 22:42:55 JUN-04-2019, 05:42:55 PM 37.59968 -99.04573 View Event 2 Kiowa
1001457230 2019-06-05 23:16:42 JUN-05-2019, 06:16:42 PM 37.61914 -99.0636 View Event 2 Kiowa
1001458065 2019-01-21 10:51:15 JAN-21-2019, 04:51:15 AM 38.14589 -96.96557 View Event 2.3 Marion
1001455445 2019-01-26 02:16:05 JAN-25-2019, 08:16:05 PM 38.14861 -96.96652 View Event 2.3 Marion
1001459421 2019-08-02 13:44:38 AUG-02-2019, 08:44:38 AM 38.37968 -96.85134 View Event 2.5 Marion
1001459424 2019-08-02 18:03:52 AUG-02-2019, 01:03:52 PM 38.38022 -96.84875 View Event 2.4 Marion
1001459425 2019-08-04 06:20:36 AUG-04-2019, 01:20:36 AM 38.38206 -96.86282 View Event 2.4 Marion
1001460064 2019-08-27 10:51:45 AUG-27-2019, 05:51:45 AM 38.49258 -96.85192 View Event 2.3 Marion
1001460517 2019-09-16 14:59:44 SEP-16-2019, 09:59:44 AM 38.37348 -96.8783 View Event 3.6 Marion
1001460529 2019-09-18 07:34:20 SEP-18-2019, 02:34:20 AM 38.36279 -96.8914 View Event 2.1 Marion
1001460777 2019-10-01 03:56:54 SEP-30-2019, 10:56:54 PM 38.386 -96.876 View Event 2.2 Marion
1001461656 2019-11-11 23:21:12 NOV-11-2019, 05:21:12 PM 38.391 -96.874 View Event 3.3 Marion
1001461657 2019-11-12 00:24:40 NOV-11-2019, 06:24:40 PM 38.389 -96.867 View Event 2.3 Marion
1001461754 2019-11-16 12:50:40 NOV-16-2019, 06:50:40 AM 38.514 -96.832 View Event 2 Marion
1001461821 2019-11-28 14:26:53 NOV-28-2019, 08:26:53 AM 38.347 -96.897 View Event 2 Marion
1001455523 2019-02-09 03:20:42 FEB-08-2019, 09:20:42 PM 38.859 -96.8418 View Event 2.4 Morris
1001455553 2019-02-12 11:58:35 FEB-12-2019, 05:58:35 AM 38.64067 -96.72598 View Event 2.4 Morris
1001461045 2019-10-21 09:39:12 OCT-21-2019, 04:39:12 AM 38.64 -96.915 View Event 2.3 Morris
1001460764 2019-09-29 21:57:54 SEP-29-2019, 04:57:54 PM 39.33568 -98.96881 View Event 2.4 Osborne
1001461799 2019-11-19 17:06:45 NOV-19-2019, 11:06:45 AM 37.476 -98.873 View Event 2 Pratt
1001455313 2019-01-06 02:18:33 JAN-05-2019, 08:18:33 PM 38.01208 -98.00269 View Event 2.7 Reno
1001455342 2019-01-13 09:48:14 JAN-13-2019, 03:48:14 AM 38.01538 -97.99513 View Event 2.2 Reno
1001455627 2019-02-23 12:21:23 FEB-23-2019, 06:21:23 AM 38.01445 -98.00026 View Event 2.5 Reno
1001455704 2019-03-11 05:35:14 MAR-11-2019, 12:35:14 AM 38.01032 -97.99574 View Event 3.2 Reno
1001455706 2019-03-11 12:18:07 MAR-11-2019, 07:18:07 AM 38.00735 -97.99329 View Event 2.3 Reno
1001455708 2019-03-11 15:13:07 MAR-11-2019, 10:13:07 AM 38.01511 -97.99073 View Event 2.1 Reno
1001455709 2019-03-11 16:06:34 MAR-11-2019, 11:06:34 AM 38.01302 -97.99883 View Event 2 Reno
1001455825 2019-03-21 06:14:39 MAR-21-2019, 01:14:39 AM 38.01564 -98.00021 View Event 2.2 Reno
1001455841 2019-03-22 22:53:36 MAR-22-2019, 05:53:36 PM 38.01307 -97.98839 View Event 2.1 Reno
1001456020 2019-04-20 18:49:57 APR-20-2019, 01:49:57 PM 37.86919 -98.0321 View Event 2.1 Reno
1001456032 2019-04-22 22:04:48 APR-22-2019, 05:04:48 PM 38.00394 -98.01044 View Event 2 Reno
1001456034 2019-04-22 22:06:55 APR-22-2019, 05:06:55 PM 38.00536 -97.99477 View Event 2.6 Reno
1001457598 2019-07-08 13:27:38 JUL-08-2019, 08:27:38 AM 38.00393 -98.01007 View Event 2 Reno
1001457599 2019-07-08 17:44:13 JUL-08-2019, 12:44:13 PM 38.00364 -98.0003 View Event 2 Reno
1001457601 2019-07-08 20:04:53 JUL-08-2019, 03:04:53 PM 38.00997 -97.99703 View Event 2 Reno
1001459711 2019-08-14 13:44:41 AUG-14-2019, 08:44:41 AM 38.00584 -98.00188 View Event 2.9 Reno
1001459712 2019-08-14 16:57:05 AUG-14-2019, 11:57:05 AM 38.00555 -97.99855 View Event 2.2 Reno
1001459872 2019-08-16 12:59:11 AUG-16-2019, 07:59:11 AM 38.01434 -97.99945 View Event 4.6 Reno
1001459873 2019-08-16 13:10:51 AUG-16-2019, 08:10:51 AM 38.01184 -98.00042 View Event 3.4 Reno
1001459874 2019-08-16 13:28:57 AUG-16-2019, 08:28:57 AM 38.0141 -97.99229 View Event 3 Reno
1001459875 2019-08-16 13:30:57 AUG-16-2019, 08:30:57 AM 38.01377 -97.98829 View Event 3.1 Reno
1001459876 2019-08-16 13:43:14 AUG-16-2019, 08:43:14 AM 38.01016 -97.99069 View Event 3.1 Reno
1001459877 2019-08-16 17:18:48 AUG-16-2019, 12:18:48 PM 38.01499 -97.99871 View Event 2 Reno
1001459878 2019-08-16 18:26:11 AUG-16-2019, 01:26:11 PM 38.01932 -97.99332 View Event 2.2 Reno
1001459879 2019-08-16 19:55:43 AUG-16-2019, 02:55:43 PM 38.01457 -97.99688 View Event 2.8 Reno
1001459880 2019-08-16 19:56:54 AUG-16-2019, 02:56:54 PM 38.01149 -97.99343 View Event 2.7 Reno
1001459902 2019-08-17 01:03:39 AUG-16-2019, 08:03:39 PM 38.0114 -98.01608 View Event 3.3 Reno
1001459903 2019-08-17 03:19:01 AUG-16-2019, 10:19:01 PM 38.01589 -98.00061 View Event 2.5 Reno
1001459904 2019-08-17 05:23:49 AUG-17-2019, 12:23:49 AM 38.01284 -97.99796 View Event 2.4 Reno
1001459905 2019-08-17 06:21:05 AUG-17-2019, 01:21:05 AM 38.01915 -98.00322 View Event 2.3 Reno
View page: 1 || 2 || 3 || 4 || 5 || 6 || 7 || 8 || 9

Kansas Geological Survey, Earthquake Database
Comments to webadmin@kgs.ku.edu
URL=http://www.kgs.ku.edu/Geophysics/Earthquakes/index.html
Earthquake Database Program Updated Jan. 25, 2019. Data added continuously.